ATLAS 5 CENTAUR DEB, 44643

Orbit data source: Space-Track

ATLAS 5 CENTAUR DEB, 44643 is space debris in HEO originally from a launch on Wed, 17 Oct 2018 UTC launched from the Air Force Eastern Test Range (AFETR). Debris objects in space refer to the collection of defunct objects orbiting the Earth. Examples of debris include non-operational satellites, rocket bodies, and fragments generated from explosions, collisions, or faulty payload assembly.

Loading next visibility...
Identifier
44643, 2018-079D
Orbit
HEO
Country
Flag of USUS
Related business
Flag of USUnited Launch Alliance/Lockheed Martin (US)
Manufacturer
ULA Decatur
Mission
Spacecraft
Bus & Motor
Unknown
Mass
Unknown
Launch date (UTC)
2018-10-17 (7 years ago)
Launch vehicle
Unknown
Launch site
Air Force Eastern Test Range (AFETR)
Object type
Payload
Rocket body
Debris
Shape & HBR
Unknown
Radar Cross Section
RCS unknown

Expand to show TLE details & history
Last TLE update: 2 days ago

TLE from 2 days ago
0 ATLAS 5 CENTAUR DEB
1 44643U 18079D   25258.89433027 -.00000203  00000-0  00000-0 0  9990
2 44643  13.6673  47.2267 4745321 283.1804  29.6733  1.81973069 42256
Epoch: 2025-09-15T21:27Z
TLE epoch observation values (Epoch: 2025-09-15T21:27:50.135Z)
Latitude
-0.00006°
Longitude
90.22391°
Altitude
13,410.422 km
Speed
5.121 km/s
True Right ascension
03h 09m 06s
True Declination
0° 00' 00"
Sunlit
Object was in daylight at epoch
Visualization orbit readout
Latitude
Unknown
Longitude
Unknown
Altitude
Unknown
Speed
Unknown
Apparent Right ascension
Unknown
Apparent Declination
Unknown
Sunlit
N/A
Visualization observer readout
Local Sidereal Time
22:28:58
Azimuth
Unknown
Elevation
Unknown
Doppler factor
Unknown
Orbital elements
Apogee altitude
35,412.942 km
Perigee altitude
8,514.635 km
Semi-major axis
28,341.926 km
Eccentricity
0.47453
Inclination
13.6673°
RAAN
47.2267°
Arg. of periapsis
283.1804°
True anomaly
76.8965°
Mean anomaly
29.6733°
Eccentric anomaly
50.71858°
Mean motion
0.45488 °/min
Orbital period
791.41 mins
BSTAR
0
Loading maneuver chart data...
Computing Atmospheric mass density...

Documentation

Showing up to 5 results
|